49P/Arend-Rigaux (2005)

Japanese version
Home page
Updated on May 5, 2012

---------------------------------------------------------------------

* Profile

* Pictures

* Orbital Elements

Epoch 2005 Mar. 11.0 TT = JDT 2453440.5
T 2005 Feb. 24.55848 TT                                 MPC
q   1.3685520            (2000.0)            P               Q
n   0.14901929     Peri.  330.70235     -0.06207583     -0.96160444
a   3.5235009      Node   121.64762     +0.96591934     -0.12531730
e   0.6115931      Incl.   18.30196     +0.25128951     +0.24415668
P   6.61
From 2684 observations 1963 Sept. 12-2012 May 2, mean residual 0".6.
     Nongravitational parameters A1 = +0.02, A2 = -0.0001.

* Finding Charts

* Magnitudes Graph

        H = 13.5  G = 0.15                       [    ,-103]  (             - 2004 Nov. 13)
        m1 = 8.0 + 5 log d + 30.0 log r(t - 10)  [-103, 124]  (2004 Nov. 13 - 2005 June 28)
        H = 13.5  G = 0.15                       [ 124,    ]  (2005 June 28 -             )

---------------------------------------------------------------------

The orbital elements are published on M.P.E.C. 2012-J16.
The charts are made with StellaNavigator Ver.2.0 for Windows (AstroArts / ASCII).
The magnitudes graphs are made with Comet for Windows.

---------------------------------------------------------------------

Copyright(C) Seiichi Yoshida (comet@aerith.net). All rights reserved.